Regional Weather Roundup
Issued by NWS

Home | Current Version | Previous Version | Graphics & Text | Print | Product List | Glossary Off
Versions: 1 2 3 4 5 6 7 8 9 10 11 12 13 14 15 16 17 18 19 20 21 22 23 24 25 26 27 28 29 30 31 32 33 34 35 36 37 38 39 40 41 42 43 44 45 46 47 48 49 50

876
ASUS43 KTOP 311859
RWRKS

WEATHER ROUNDUP FOR KANSAS
NATIONAL WEATHER SERVICE GOODLAND KS
200 PM CDT WED AUG 31 2016

NOTE:  "FAIR" INDICATES FEW OR NO CLOUDS BELOW 12,000 FEET WITH NO
SIGNIFICANT WEATHER AND/OR OBSTRUCTIONS TO VISIBILITY.

KSZ001>006-013>018-027>032-041>047-312000-
NORTHWEST KANSAS

CITY           SKY/WX    TMP DP  RH WIND       PRES   REMARKS
GOODLAND       TSTM      64  61  90 E13       30.23F FOG
HAYS           CLOUDY    73  64  73 E13       30.18F
HILL CITY      HVY RAIN  67  66  97 NE7       30.19F VSB 1/2
RUSSELL        LGT RAIN  74  70  87 N10       30.16S
$$

KSZ061>065-074>080-084>089-312000-
SOUTHWEST KANSAS

CITY           SKY/WX    TMP DP  RH WIND       PRES   REMARKS
DODGE CITY     PTSUNNY   74  66  76 N7        30.18F
ELKHART          N/A     74  61  64 SW6         N/A
GARDEN CITY    CLOUDY    72  65  78 E10       30.20S
GREAT BEND     CLOUDY    77  63  61 E5        30.15F
LIBERAL        CLOUDY    75  66  73 CALM      30.20F
$$

KSZ066>073-081>083-090>101-312000-
SOUTHEAST KANSAS

CITY           SKY/WX    TMP DP  RH WIND       PRES   REMARKS
CHANUTE        CLOUDY    82  72  71 N8        30.07F
COFFEYVILLE    CLOUDY    81  71  71 VRB3      30.05F
HUTCHINSON     CLOUDY    78  68  71 NE3       30.13F
MEDICINE LODGE   N/A     81  68  64 N8        30.10F
NEWTON         CLOUDY    74  70  87 N7        30.14F
PARSONS        CLOUDY    83  71  67 N6        30.07F
WICHITA INTL   PTSUNNY   78  69  73 VRB3      30.10F
WICHITA JABRA  PTSUNNY   77  72  84 NE8       30.10F
WINFIELD       CLOUDY    76  73  91 NE8       30.10F
$$

KSZ007>012-019>026-033>040-048>060-102>105-312000-
NORTHEAST KANSAS

CITY           SKY/WX    TMP DP  RH WIND       PRES   REMARKS
CONCORDIA      LGT RAIN  73  69  87 NE3       30.17F
EMPORIA        LGT RAIN  74  71  91 NE13      30.11F
LAWRENCE       CLOUDY    76  74  93 N3        30.12F
MANHATTAN      CLOUDY    75  70  84 NE7       30.14F
OLATHE IND     CLOUDY    76  71  85 N9        30.12F
OLATHE EXE     CLOUDY    77  70  79 N7        30.12F
SALINA         PTSUNNY   78  69  73 E6        30.14F
TOPEKA BILLARD CLOUDY    77  72  84 N5        30.12F
TOPEKA FORBES  CLOUDY    77  73  87 NE6       30.13F
$$




USA.gov is the U.S. government's official web portal to all federal, state and local government web resources and services.